Time,TemperatureF,DewpointF,PressureIn,WindDirection,WindDirectionDegrees,WindSpeedMPH,WindSpeedGustMPH,Humidity,HourlyPrecipIn,Conditions,Clouds,dailyrainin,SoftwareType,DateUTC
2013-01-03 00:03:00,32.4,28.5,30.49,North,0,0.0,0.0,85,0.00,,,0.00,WUHU216HW,2013-01-03 08:03:00,
2013-01-03 00:08:00,32.4,28.5,30.49,NNE,23,0.0,0.0,85,0.00,,,0.00,WUHU216HW,2013-01-03 08:08:00,
2013-01-03 00:13:00,32.4,28.5,30.49,NNE,23,0.0,0.0,85,0.00,,,0.00,WUHU216HW,2013-01-03 08:13:00,
2013-01-03 00:18:00,32.4,28.5,30.49,NNE,23,0.0,0.0,85,0.00,,,0.00,WUHU216HW,2013-01-03 08:18:00,
2013-01-03 00:23:00,32.4,28.5,30.49,NNE,23,0.0,0.0,85,0.00,,,0.00,WUHU216HW,2013-01-03 08:23:00,
2013-01-03 00:28:00,32.2,28.3,30.49,NNE,23,0.0,0.2,85,0.00,,,0.00,WUHU216HW,2013-01-03 08:28:00,
2013-01-03 00:33:00,32.0,28.1,30.49,NNE,23,0.0,0.2,85,0.00,,,0.00,WUHU216HW,2013-01-03 08:33:00,
2013-01-03 00:38:00,32.0,28.1,30.49,NNE,23,0.0,0.0,85,0.00,,,0.00,WUHU216HW,2013-01-03 08:38:00,
2013-01-03 00:43:00,32.0,28.1,30.49,NNE,23,0.0,0.0,85,0.00,,,0.00,WUHU216HW,2013-01-03 08:43:00,
2013-01-03 00:48:00,32.0,28.1,30.49,NNE,23,0.0,0.0,85,0.00,,,0.00,WUHU216HW,2013-01-03 08:48:00,
2013-01-03 00:53:00,32.0,28.1,30.49,NNE,23,0.0,0.0,85,0.00,,,0.00,WUHU216HW,2013-01-03 08:53:00,
2013-01-03 00:58:00,32.0,28.4,30.49,NNE,23,0.0,0.0,86,0.00,,,0.00,WUHU216HW,2013-01-03 08:58:00,
2013-01-03 01:03:00,32.0,28.4,30.49,NNE,23,0.0,0.0,86,0.00,,,0.00,WUHU216HW,2013-01-03 09:03:00,
2013-01-03 01:08:00,32.0,28.4,30.49,NNE,23,0.0,0.0,86,0.00,,,0.00,WUHU216HW,2013-01-03 09:08:00,
2013-01-03 01:13:00,31.5,27.8,30.48,NNE,23,0.2,0.4,86,0.00,,,0.00,WUHU216HW,2013-01-03 09:13:00,
2013-01-03 01:18:00,31.3,27.6,30.48,NNE,23,0.0,0.4,86,0.00,,,0.00,WUHU216HW,2013-01-03 09:18:00,
2013-01-03 01:23:00,31.3,27.6,30.49,NW,315,0.4,0.4,86,0.00,,,0.00,WUHU216HW,2013-01-03 09:23:00,
2013-01-03 01:28:00,31.3,27.6,30.49,WSW,248,0.0,0.4,86,0.00,,,0.00,WUHU216HW,2013-01-03 09:28:00,
2013-01-03 01:33:00,31.1,27.5,30.49,WSW,248,0.0,0.4,86,0.00,,,0.00,WUHU216HW,2013-01-03 09:33:00,
2013-01-03 01:38:00,31.1,27.5,30.49,WSW,248,0.0,0.0,86,0.00,,,0.00,WUHU216HW,2013-01-03 09:38:00,
2013-01-03 01:43:00,31.0,27.3,30.49,WSW,248,0.0,0.0,86,0.00,,,0.00,WUHU216HW,2013-01-03 09:43:00,
2013-01-03 01:48:00,31.0,27.3,30.50,WSW,248,0.0,0.4,86,0.00,,,0.00,WUHU216HW,2013-01-03 09:48:00,
2013-01-03 01:53:00,30.8,27.1,30.50,WSW,248,0.0,0.4,86,0.00,,,0.00,WUHU216HW,2013-01-03 09:53:00,
2013-01-03 01:58:00,30.8,27.1,30.50,NNW,338,0.0,0.0,86,0.00,,,0.00,WUHU216HW,2013-01-03 09:58:00,
2013-01-03 02:03:00,30.8,27.4,30.50,NNW,338,0.0,0.0,87,0.00,,,0.00,WUHU216HW,2013-01-03 10:03:00,
2013-01-03 02:08:00,30.8,27.4,30.50,NNW,338,0.0,0.0,87,0.00,,,0.00,WUHU216HW,2013-01-03 10:08:00,
2013-01-03 02:13:00,31.0,27.5,30.50,NNW,338,0.0,0.0,87,0.00,,,0.00,WUHU216HW,2013-01-03 10:13:00,
2013-01-03 02:18:00,31.0,27.5,30.50,NNW,338,0.0,0.0,87,0.00,,,0.00,WUHU216HW,2013-01-03 10:18:00,
2013-01-03 02:23:00,31.0,27.9,30.50,NNW,338,0.0,0.0,88,0.00,,,0.00,WUHU216HW,2013-01-03 10:23:00,
2013-01-03 02:28:00,31.1,28.1,30.50,NNW,338,0.0,0.0,88,0.00,,,0.00,WUHU216HW,2013-01-03 10:28:00,
2013-01-03 02:33:00,31.1,28.1,30.50,NNW,338,0.0,0.0,88,0.00,,,0.00,WUHU216HW,2013-01-03 10:33:00,
2013-01-03 02:38:00,31.3,27.9,30.50,NNW,338,0.0,0.0,87,0.00,,,0.00,WUHU216HW,2013-01-03 10:38:00,
2013-01-03 02:43:00,31.1,27.7,30.50,NNW,338,0.0,0.0,87,0.00,,,0.00,WUHU216HW,2013-01-03 10:43:00,
2013-01-03 02:48:00,31.1,27.7,30.50,NNW,338,0.0,0.0,87,0.00,,,0.00,WUHU216HW,2013-01-03 10:48:00,
2013-01-03 02:53:00,31.0,27.5,30.50,NNW,338,0.0,0.0,87,0.00,,,0.00,WUHU216HW,2013-01-03 10:53:00,
2013-01-03 02:58:00,31.0,27.9,30.50,NNW,338,0.0,0.2,88,0.00,,,0.00,WUHU216HW,2013-01-03 10:58:00,
2013-01-03 03:03:00,31.0,27.9,30.49,NNW,338,0.0,0.4,88,0.00,,,0.00,WUHU216HW,2013-01-03 11:03:00,
2013-01-03 03:08:00,31.1,28.1,30.49,NW,315,0.0,0.4,88,0.00,,,0.00,WUHU216HW,2013-01-03 11:08:00,
2013-01-03 03:13:00,31.1,28.1,30.49,NW,315,0.0,0.0,88,0.00,,,0.00,WUHU216HW,2013-01-03 11:13:00,
2013-01-03 03:18:00,31.1,28.1,30.49,NW,315,0.0,0.0,88,0.00,,,0.00,WUHU216HW,2013-01-03 11:18:00,
2013-01-03 03:23:00,31.1,28.1,30.49,SSW,203,0.0,0.9,88,0.00,,,0.00,WUHU216HW,2013-01-03 11:23:00,
2013-01-03 03:28:00,30.8,27.7,30.49,SSW,203,0.0,0.9,88,0.00,,,0.00,WUHU216HW,2013-01-03 11:28:00,
2013-01-03 03:33:00,30.6,27.6,30.49,NNW,338,0.0,0.0,88,0.00,,,0.00,WUHU216HW,2013-01-03 11:33:00,
2013-01-03 03:38:00,30.1,26.6,30.49,NNW,338,0.0,0.2,87,0.00,,,0.00,WUHU216HW,2013-01-03 11:38:00,
2013-01-03 03:43:00,30.1,27.0,30.48,NNW,338,0.0,0.7,88,0.00,,,0.00,WUHU216HW,2013-01-03 11:43:00,
2013-01-03 03:48:00,30.1,27.0,30.49,NNW,338,0.0,0.7,88,0.00,,,0.00,WUHU216HW,2013-01-03 11:48:00,
2013-01-03 03:53:00,30.2,27.5,30.48,NNW,338,0.0,0.0,89,0.00,,,0.00,WUHU216HW,2013-01-03 11:53:00,
2013-01-03 03:58:00,30.4,27.6,30.48,NNW,338,0.0,0.0,89,0.00,,,0.00,WUHU216HW,2013-01-03 11:58:00,
2013-01-03 04:03:00,30.4,27.6,30.48,NW,315,0.0,0.0,89,0.00,,,0.00,WUHU216HW,2013-01-03 12:03:00,
2013-01-03 04:08:00,30.4,27.6,30.48,SSE,158,0.0,1.1,89,0.00,,,0.00,WUHU216HW,2013-01-03 12:08:00,
2013-01-03 04:13:00,30.2,27.5,30.47,NE,45,0.0,1.1,89,0.00,,,0.00,WUHU216HW,2013-01-03 12:13:00,
2013-01-03 04:18:00,29.9,26.8,30.47,North,0,0.0,0.7,88,0.00,,,0.00,WUHU216HW,2013-01-03 12:18:00,
2013-01-03 04:23:00,29.9,26.8,30.47,North,0,0.0,0.7,88,0.00,,,0.00,WUHU216HW,2013-01-03 12:23:00,
2013-01-03 04:28:00,29.9,26.8,30.46,North,0,0.0,0.0,88,0.00,,,0.00,WUHU216HW,2013-01-03 12:28:00,
2013-01-03 04:33:00,29.9,26.8,30.46,ESE,113,0.0,0.4,88,0.00,,,0.00,WUHU216HW,2013-01-03 12:33:00,
2013-01-03 04:38:00,29.7,26.7,30.46,North,0,0.0,0.4,88,0.00,,,0.00,WUHU216HW,2013-01-03 12:38:00,
2013-01-03 04:43:00,29.7,26.7,30.46,North,0,0.0,0.0,88,0.00,,,0.00,WUHU216HW,2013-01-03 12:43:00,
2013-01-03 04:48:00,29.7,26.7,30.46,West,270,0.0,0.4,88,0.00,,,0.00,WUHU216HW,2013-01-03 12:48:00,
2013-01-03 04:53:00,29.7,26.7,30.45,West,270,0.0,0.4,88,0.00,,,0.00,WUHU216HW,2013-01-03 12:53:00,
2013-01-03 04:58:00,29.7,26.7,30.45,West,270,0.0,0.4,88,0.00,,,0.00,WUHU216HW,2013-01-03 12:58:00,
2013-01-03 05:03:00,29.5,26.5,30.45,West,270,0.0,0.4,88,0.00,,,0.00,WUHU216HW,2013-01-03 13:03:00,
2013-01-03 05:08:00,29.5,26.5,30.45,West,270,0.0,0.0,88,0.00,,,0.00,WUHU216HW,2013-01-03 13:08:00,
2013-01-03 05:13:00,29.2,26.1,30.45,SSW,203,0.0,0.9,88,0.00,,,0.00,WUHU216HW,2013-01-03 13:13:00,
2013-01-03 05:18:00,29.2,26.1,30.45,South,180,0.7,1.1,88,0.00,,,0.00,WUHU216HW,2013-01-03 13:18:00,
2013-01-03 05:23:00,29.0,25.6,30.45,NNE,23,0.0,1.1,87,0.00,,,0.00,WUHU216HW,2013-01-03 13:23:00,
2013-01-03 05:28:00,28.8,25.8,30.45,SSW,203,0.0,0.7,88,0.00,,,0.00,WUHU216HW,2013-01-03 13:28:00,
2013-01-03 05:33:00,28.6,25.6,30.45,SSW,203,0.0,0.7,88,0.00,,,0.00,WUHU216HW,2013-01-03 13:33:00,
2013-01-03 05:38:00,28.4,25.4,30.45,SSW,203,0.0,0.7,88,0.00,,,0.00,WUHU216HW,2013-01-03 13:38:00,
2013-01-03 05:43:00,28.4,25.4,30.45,SSW,203,0.0,0.0,88,0.00,,,0.00,WUHU216HW,2013-01-03 13:43:00,
2013-01-03 05:48:00,28.4,25.4,30.45,SSW,203,0.0,0.0,88,0.00,,,0.00,WUHU216HW,2013-01-03 13:48:00,
2013-01-03 05:53:00,28.4,25.4,30.44,SW,225,0.0,0.9,88,0.00,,,0.00,WUHU216HW,2013-01-03 13:53:00,
2013-01-03 05:58:00,28.6,25.6,30.44,SW,225,0.0,0.9,88,0.00,,,0.00,WUHU216HW,2013-01-03 13:58:00,
2013-01-03 06:03:00,28.8,25.8,30.44,SW,225,0.0,0.0,88,0.00,,,0.00,WUHU216HW,2013-01-03 14:03:00,
2013-01-03 06:08:00,29.0,25.9,30.44,SW,225,0.0,0.0,88,0.00,,,0.00,WUHU216HW,2013-01-03 14:08:00,
2013-01-03 06:13:00,29.0,25.9,30.44,SW,225,0.0,0.0,88,0.00,,,0.00,WUHU216HW,2013-01-03 14:13:00,
2013-01-03 06:18:00,29.2,26.1,30.44,SW,225,0.2,0.4,88,0.00,,,0.00,WUHU216HW,2013-01-03 14:18:00,
2013-01-03 06:23:00,29.0,25.9,30.44,SW,225,0.0,0.4,88,0.00,,,0.00,WUHU216HW,2013-01-03 14:23:00,
2013-01-03 06:28:00,29.0,25.9,30.44,SW,225,0.0,0.0,88,0.00,,,0.00,WUHU216HW,2013-01-03 14:28:00,
2013-01-03 06:33:00,28.8,25.8,30.43,NW,315,0.0,0.0,88,0.00,,,0.00,WUHU216HW,2013-01-03 14:33:00,
2013-01-03 06:38:00,29.0,25.9,30.43,NW,315,0.0,0.0,88,0.00,,,0.00,WUHU216HW,2013-01-03 14:38:00,
2013-01-03 06:43:00,29.0,25.9,30.43,NW,315,0.0,0.0,88,0.00,,,0.00,WUHU216HW,2013-01-03 14:43:00,
2013-01-03 06:48:00,29.2,26.1,30.43,NW,315,0.0,0.0,88,0.00,,,0.00,WUHU216HW,2013-01-03 14:48:00,
2013-01-03 06:53:00,29.0,25.9,30.43,NW,315,0.0,0.0,88,0.00,,,0.00,WUHU216HW,2013-01-03 14:53:00,
2013-01-03 06:58:00,29.0,25.9,30.43,NW,315,0.0,0.0,88,0.00,,,0.00,WUHU216HW,2013-01-03 14:58:00,
2013-01-03 07:03:00,29.2,26.1,30.43,WNW,293,0.0,0.0,88,0.00,,,0.00,WUHU216HW,2013-01-03 15:03:00,
2013-01-03 07:08:00,29.0,25.9,30.43,SSW,203,0.0,0.0,88,0.00,,,0.00,WUHU216HW,2013-01-03 15:08:00,
2013-01-03 07:13:00,28.6,25.6,30.43,SSW,203,0.0,0.0,88,0.00,,,0.00,WUHU216HW,2013-01-03 15:13:00,
2013-01-03 07:18:00,28.4,25.7,30.43,North,0,0.0,0.0,89,0.00,,,0.00,WUHU216HW,2013-01-03 15:18:00,
2013-01-03 07:23:00,28.1,25.3,30.44,North,0,0.0,0.0,89,0.00,,,0.00,WUHU216HW,2013-01-03 15:23:00,
2013-01-03 07:28:00,28.1,25.3,30.44,West,270,0.0,0.0,89,0.00,,,0.00,WUHU216HW,2013-01-03 15:28:00,
2013-01-03 07:33:00,28.1,25.3,30.44,West,270,0.0,0.0,89,0.00,,,0.00,WUHU216HW,2013-01-03 15:33:00,
2013-01-03 07:38:00,28.3,25.5,30.44,WNW,293,0.0,0.0,89,0.00,,,0.00,WUHU216HW,2013-01-03 15:38:00,
2013-01-03 07:43:00,28.4,25.7,30.44,SSE,158,1.1,1.1,89,0.00,,,0.00,WUHU216HW,2013-01-03 15:43:00,
2013-01-03 07:48:00,28.4,25.7,30.44,SSE,158,0.0,1.1,89,0.00,,,0.00,WUHU216HW,2013-01-03 15:48:00,
2013-01-03 07:53:00,28.3,25.5,30.43,NE,45,0.4,0.9,89,0.00,,,0.00,WUHU216HW,2013-01-03 15:53:00,
2013-01-03 07:58:00,28.3,25.5,30.43,NE,45,0.0,0.9,89,0.00,,,0.00,WUHU216HW,2013-01-03 15:58:00,
2013-01-03 08:03:00,28.4,25.7,30.44,SSE,158,0.0,0.4,89,0.00,,,0.00,WUHU216HW,2013-01-03 16:03:00,
2013-01-03 08:08:00,28.3,25.5,30.44,SSW,203,0.0,0.7,89,0.00,,,0.00,WUHU216HW,2013-01-03 16:08:00,
2013-01-03 08:13:00,27.9,25.1,30.43,North,0,0.4,0.7,89,0.00,,,0.00,WUHU216HW,2013-01-03 16:13:00,
2013-01-03 08:18:00,27.7,25.2,30.43,North,0,0.7,0.7,90,0.00,,,0.00,WUHU216HW,2013-01-03 16:18:00,
2013-01-03 08:23:00,27.7,25.2,30.44,NW,315,0.0,0.7,90,0.00,,,0.00,WUHU216HW,2013-01-03 16:23:00,
2013-01-03 08:28:00,27.9,25.4,30.44,NW,315,0.0,0.0,90,0.00,,,0.00,WUHU216HW,2013-01-03 16:28:00,
2013-01-03 08:33:00,27.9,25.1,30.44,WNW,293,0.4,0.4,89,0.00,,,0.00,WUHU216HW,2013-01-03 16:33:00,
2013-01-03 08:38:00,27.9,25.1,30.44,SSW,203,0.0,0.4,89,0.00,,,0.00,WUHU216HW,2013-01-03 16:38:00,
2013-01-03 08:43:00,27.9,25.1,30.44,SSW,203,0.0,0.4,89,0.00,,,0.00,WUHU216HW,2013-01-03 16:43:00,
2013-01-03 08:48:00,27.7,24.9,30.44,SSW,203,0.0,0.0,89,0.00,,,0.00,WUHU216HW,2013-01-03 16:48:00,
2013-01-03 08:53:00,27.7,25.2,30.44,SSW,203,0.0,0.0,90,0.00,,,0.00,WUHU216HW,2013-01-03 16:53:00,
2013-01-03 08:58:00,27.9,25.4,30.44,NW,315,0.0,0.0,90,0.00,,,0.00,WUHU216HW,2013-01-03 16:58:00,
2013-01-03 09:03:00,28.1,25.6,30.44,NW,315,0.0,0.0,90,0.00,,,0.00,WUHU216HW,2013-01-03 17:03:00,
2013-01-03 09:08:00,28.3,25.7,30.44,NNW,338,0.7,0.7,90,0.00,,,0.00,WUHU216HW,2013-01-03 17:08:00,
2013-01-03 09:13:00,28.4,26.2,30.44,NE,45,0.0,1.1,91,0.00,,,0.00,WUHU216HW,2013-01-03 17:13:00,
2013-01-03 09:18:00,28.6,26.4,30.44,North,0,0.0,1.1,91,0.00,,,0.00,WUHU216HW,2013-01-03 17:18:00,
2013-01-03 09:23:00,28.8,26.6,30.44,North,0,0.0,0.9,91,0.00,,,0.00,WUHU216HW,2013-01-03 17:23:00,
2013-01-03 09:28:00,29.0,26.7,30.44,North,0,0.0,0.9,91,0.00,,,0.00,WUHU216HW,2013-01-03 17:28:00,
2013-01-03 09:33:00,29.0,26.7,30.44,North,0,0.0,0.0,91,0.00,,,0.00,WUHU216HW,2013-01-03 17:33:00,
2013-01-03 09:38:00,29.2,26.9,30.44,SSW,203,0.0,0.4,91,0.00,,,0.00,WUHU216HW,2013-01-03 17:38:00,
2013-01-03 09:43:00,29.5,27.3,30.44,SSW,203,0.4,0.7,91,0.00,,,0.00,WUHU216HW,2013-01-03 17:43:00,
2013-01-03 09:48:00,30.1,27.8,30.44,NNW,338,0.0,0.7,91,0.00,,,0.00,WUHU216HW,2013-01-03 17:48:00,
2013-01-03 09:53:00,30.2,27.7,30.44,North,0,0.0,1.1,90,0.00,,,0.00,WUHU216HW,2013-01-03 17:53:00,
2013-01-03 09:58:00,30.4,27.9,30.44,South,180,0.0,1.1,90,0.00,,,0.00,WUHU216HW,2013-01-03 17:58:00,
2013-01-03 10:03:00,31.3,28.5,30.44,ESE,113,0.2,1.3,89,0.00,,,0.00,WUHU216HW,2013-01-03 18:03:00,
2013-01-03 10:08:00,31.7,28.9,30.44,SW,225,0.4,1.3,89,0.00,,,0.00,WUHU216HW,2013-01-03 18:08:00,
2013-01-03 10:13:00,32.0,29.3,30.44,ESE,113,0.0,0.9,89,0.00,,,0.00,WUHU216HW,2013-01-03 18:13:00,
2013-01-03 10:18:00,32.4,29.5,30.44,SSW,203,0.0,0.9,89,0.00,,,0.00,WUHU216HW,2013-01-03 18:18:00,
2013-01-03 10:23:00,32.8,29.6,30.44,SSE,158,0.0,0.4,88,0.00,,,0.00,WUHU216HW,2013-01-03 18:23:00,
2013-01-03 10:28:00,32.8,29.6,30.44,SSE,158,0.2,0.4,88,0.00,,,0.00,WUHU216HW,2013-01-03 18:28:00,
2013-01-03 10:33:00,33.3,30.1,30.44,SSE,158,0.0,0.2,88,0.00,,,0.00,WUHU216HW,2013-01-03 18:33:00,
2013-01-03 10:38:00,33.5,30.2,30.44,NNE,23,0.0,0.7,88,0.00,,,0.00,WUHU216HW,2013-01-03 18:38:00,
2013-01-03 10:43:00,34.0,30.2,30.45,North,0,0.9,0.9,86,0.00,,,0.00,WUHU216HW,2013-01-03 18:43:00,
2013-01-03 10:48:00,34.4,30.2,30.44,North,0,1.1,1.1,85,0.00,,,0.00,WUHU216HW,2013-01-03 18:48:00,
2013-01-03 10:53:00,34.7,30.6,30.44,North,0,0.4,1.1,85,0.00,,,0.00,WUHU216HW,2013-01-03 18:53:00,
2013-01-03 10:58:00,35.3,30.9,30.44,North,0,0.0,0.9,84,0.00,,,0.00,WUHU216HW,2013-01-03 18:58:00,
2013-01-03 11:03:00,35.6,31.2,30.44,North,0,0.0,2.0,84,0.00,,,0.00,WUHU216HW,2013-01-03 19:03:00,
2013-01-03 11:08:00,36.0,31.0,30.44,NNW,338,0.0,2.0,82,0.00,,,0.00,WUHU216HW,2013-01-03 19:08:00,
2013-01-03 11:13:00,36.4,31.3,30.44,NNW,338,0.0,0.9,82,0.00,,,0.00,WUHU216HW,2013-01-03 19:13:00,
2013-01-03 11:18:00,36.7,31.7,30.44,NNW,338,0.0,0.4,82,0.00,,,0.00,WUHU216HW,2013-01-03 19:18:00,
2013-01-03 11:51:00,39.1,32.1,30.43,North,0,0.0,1.8,76,0.00,,,0.00,WUHU216HW,2013-01-03 19:51:00,
2013-01-03 11:56:00,39.4,32.8,30.43,North,0,0.0,1.1,77,0.00,,,0.00,WUHU216HW,2013-01-03 19:56:00,
2013-01-03 12:01:00,39.6,32.3,30.43,SW,225,1.8,1.8,75,0.00,,,0.00,WUHU216HW,2013-01-03 20:01:00,
2013-01-03 12:06:00,40.0,32.3,30.42,SW,225,0.0,1.8,74,0.00,,,0.00,WUHU216HW,2013-01-03 20:06:00,
2013-01-03 12:11:00,40.3,32.7,30.42,SSE,158,0.0,0.4,74,0.00,,,0.00,WUHU216HW,2013-01-03 20:11:00,
2013-01-03 12:16:00,40.7,33.0,30.42,WSW,248,1.1,1.1,74,0.00,,,0.00,WUHU216HW,2013-01-03 20:16:00,
2013-01-03 12:21:00,40.9,32.5,30.42,SSE,158,1.1,1.1,72,0.00,,,0.00,WUHU216HW,2013-01-03 20:21:00,
2013-01-03 12:26:00,41.4,33.4,30.43,South,180,1.1,1.3,73,0.00,,,0.00,WUHU216HW,2013-01-03 20:26:00,
2013-01-03 12:31:00,41.6,33.2,30.43,South,180,0.2,3.6,72,0.00,,,0.00,WUHU216HW,2013-01-03 20:31:00,
2013-01-03 12:36:00,42.1,33.5,30.42,SSW,203,0.0,3.6,71,0.00,,,0.00,WUHU216HW,2013-01-03 20:36:00,
2013-01-03 12:41:00,42.1,33.1,30.42,SSW,203,0.0,2.2,70,0.00,,,0.00,WUHU216HW,2013-01-03 20:41:00,
2013-01-03 12:46:00,42.1,33.1,30.41,South,180,0.7,1.1,70,0.00,,,0.00,WUHU216HW,2013-01-03 20:46:00,
2013-01-03 12:51:00,42.5,32.7,30.41,NNW,338,0.4,2.5,68,0.00,,,0.00,WUHU216HW,2013-01-03 20:51:00,
2013-01-03 12:56:00,42.8,33.0,30.41,SSW,203,1.1,2.5,68,0.00,,,0.00,WUHU216HW,2013-01-03 20:56:00,
2013-01-03 13:01:00,43.0,33.2,30.41,SE,135,0.4,1.8,68,0.00,,,0.00,WUHU216HW,2013-01-03 21:01:00,
2013-01-03 13:06:00,43.6,33.8,30.41,SW,225,0.0,1.8,68,0.00,,,0.00,WUHU216HW,2013-01-03 21:06:00,
2013-01-03 13:11:00,43.6,33.0,30.40,SSW,203,0.2,1.6,66,0.00,,,0.00,WUHU216HW,2013-01-03 21:11:00,
2013-01-03 13:16:00,43.6,33.3,30.41,SSW,203,1.1,1.1,67,0.00,,,0.00,WUHU216HW,2013-01-03 21:16:00,
2013-01-03 13:21:00,43.7,32.8,30.41,South,180,0.0,2.0,65,0.00,,,0.00,WUHU216HW,2013-01-03 21:21:00,
2013-01-03 13:26:00,43.9,32.9,30.41,East,90,0.0,2.0,65,0.00,,,0.00,WUHU216HW,2013-01-03 21:26:00,
2013-01-03 13:31:00,43.7,32.8,30.41,SSW,203,0.9,1.6,65,0.00,,,0.00,WUHU216HW,2013-01-03 21:31:00,
2013-01-03 13:36:00,43.7,32.3,30.41,SSW,203,0.0,1.1,64,0.00,,,0.00,WUHU216HW,2013-01-03 21:36:00,
2013-01-03 13:41:00,43.7,32.8,30.41,South,180,0.7,0.7,65,0.00,,,0.00,WUHU216HW,2013-01-03 21:41:00,
2013-01-03 13:46:00,43.9,32.5,30.41,NW,315,0.0,0.9,64,0.00,,,0.00,WUHU216HW,2013-01-03 21:46:00,
2013-01-03 13:51:00,44.1,32.7,30.41,WSW,248,0.0,0.9,64,0.00,,,0.00,WUHU216HW,2013-01-03 21:51:00,
2013-01-03 13:56:00,44.3,32.5,30.40,SW,225,1.6,2.5,63,0.00,,,0.00,WUHU216HW,2013-01-03 21:56:00,
2013-01-03 14:01:00,44.5,33.0,30.40,SSW,203,0.0,2.5,64,0.00,,,0.00,WUHU216HW,2013-01-03 22:01:00,
2013-01-03 14:06:00,44.6,32.9,30.40,WSW,248,0.0,2.2,63,0.00,,,0.00,WUHU216HW,2013-01-03 22:06:00,
2013-01-03 14:11:00,45.0,32.8,30.40,SSW,203,2.2,2.2,62,0.00,,,0.00,WUHU216HW,2013-01-03 22:11:00,
2013-01-03 14:16:00,45.0,30.7,30.40,ENE,68,0.0,2.2,57,0.00,,,0.00,WUHU216HW,2013-01-03 22:16:00,
2013-01-03 14:21:00,45.4,32.3,30.40,South,180,1.3,2.5,60,0.00,,,0.00,WUHU216HW,2013-01-03 22:21:00,
2013-01-03 14:26:00,45.4,32.3,30.41,SW,225,1.1,2.5,60,0.00,,,0.00,WUHU216HW,2013-01-03 22:26:00,
2013-01-03 14:31:00,45.4,32.3,30.41,SW,225,1.8,1.8,60,0.00,,,0.00,WUHU216HW,2013-01-03 22:31:00,
2013-01-03 14:36:00,45.4,31.9,30.41,South,180,0.7,1.8,59,0.00,,,0.00,WUHU216HW,2013-01-03 22:36:00,
2013-01-03 14:41:00,45.4,32.3,30.41,WSW,248,1.3,3.4,60,0.00,,,0.00,WUHU216HW,2013-01-03 22:41:00,
2013-01-03 14:46:00,45.2,32.6,30.40,WSW,248,0.0,3.4,61,0.00,,,0.00,WUHU216HW,2013-01-03 22:46:00,
2013-01-03 14:51:00,45.0,32.4,30.41,SSE,158,3.1,3.1,61,0.00,,,0.00,WUHU216HW,2013-01-03 22:51:00,
2013-01-03 14:56:00,45.0,32.8,30.41,SSE,158,0.0,3.1,62,0.00,,,0.00,WUHU216HW,2013-01-03 22:56:00,
2013-01-03 15:01:00,44.6,32.9,30.42,SSW,203,0.0,3.1,63,0.00,,,0.00,WUHU216HW,2013-01-03 23:01:00,
2013-01-03 15:06:00,44.3,32.5,30.42,SSW,203,0.0,0.0,63,0.00,,,0.00,WUHU216HW,2013-01-03 23:06:00,
2013-01-03 15:11:00,44.1,32.0,30.42,SW,225,1.3,1.3,62,0.00,,,0.00,WUHU216HW,2013-01-03 23:11:00,
2013-01-03 15:16:00,43.9,32.1,30.43,SW,225,0.0,1.3,63,0.00,,,0.00,WUHU216HW,2013-01-03 23:16:00,
2013-01-03 15:21:00,43.7,32.0,30.43,SW,225,0.0,0.4,63,0.00,,,0.00,WUHU216HW,2013-01-03 23:21:00,
2013-01-03 15:26:00,43.6,32.1,30.43,SW,225,0.0,0.0,64,0.00,,,0.00,WUHU216HW,2013-01-03 23:26:00,
2013-01-03 15:31:00,43.2,32.2,30.44,SW,225,0.0,0.0,65,0.00,,,0.00,WUHU216HW,2013-01-03 23:31:00,
2013-01-03 15:36:00,43.0,32.1,30.44,SW,225,0.0,0.0,65,0.00,,,0.00,WUHU216HW,2013-01-03 23:36:00,
2013-01-03 15:41:00,42.8,31.5,30.44,SW,225,0.0,0.4,64,0.00,,,0.00,WUHU216HW,2013-01-03 23:41:00,
2013-01-03 15:46:00,42.5,32.0,30.44,NW,315,0.0,0.4,66,0.00,,,0.00,WUHU216HW,2013-01-03 23:46:00,
2013-01-03 15:51:00,42.1,31.1,30.44,NW,315,0.4,0.4,65,0.00,,,0.00,WUHU216HW,2013-01-03 23:51:00,
2013-01-03 15:56:00,42.1,31.1,30.43,NW,315,0.0,0.7,65,0.00,,,0.00,WUHU216HW,2013-01-03 23:56:00,
2013-01-03 16:01:00,41.9,31.4,30.43,NW,315,0.0,0.7,66,0.00,,,0.00,WUHU216HW,2013-01-04 00:01:00,
2013-01-03 16:06:00,41.9,31.8,30.43,NW,315,0.0,0.0,67,0.00,,,0.00,WUHU216HW,2013-01-04 00:06:00,
2013-01-03 16:11:00,41.8,31.2,30.42,North,0,1.1,1.1,66,0.00,,,0.00,WUHU216HW,2013-01-04 00:11:00,
2013-01-03 16:16:00,41.6,31.4,30.43,North,0,0.0,1.1,67,0.00,,,0.00,WUHU216HW,2013-01-04 00:16:00,
2013-01-03 16:21:00,41.6,31.4,30.43,North,0,0.0,0.7,67,0.00,,,0.00,WUHU216HW,2013-01-04 00:21:00,
2013-01-03 16:26:00,41.6,31.4,30.43,North,0,0.0,0.0,67,0.00,,,0.00,WUHU216HW,2013-01-04 00:26:00,
2013-01-03 16:31:00,41.8,31.6,30.43,North,0,0.0,0.0,67,0.00,,,0.00,WUHU216HW,2013-01-04 00:31:00,
2013-01-03 16:36:00,41.8,31.2,30.43,North,0,0.0,0.0,66,0.00,,,0.00,WUHU216HW,2013-01-04 00:36:00,
2013-01-03 16:41:00,41.8,30.9,30.43,North,0,0.0,0.0,65,0.00,,,0.00,WUHU216HW,2013-01-04 00:41:00,
2013-01-03 16:46:00,41.6,30.7,30.43,North,0,0.0,0.0,65,0.00,,,0.00,WUHU216HW,2013-01-04 00:46:00,
2013-01-03 16:51:00,41.4,29.3,30.43,North,0,0.0,0.0,62,0.00,,,0.00,WUHU216HW,2013-01-04 00:51:00,
2013-01-03 16:56:00,41.2,30.0,30.43,North,0,0.0,0.0,64,0.00,,,0.00,WUHU216HW,2013-01-04 00:56:00,
2013-01-03 17:01:00,41.2,30.0,30.43,North,0,0.0,0.0,64,0.00,,,0.00,WUHU216HW,2013-01-04 01:01:00,
2013-01-03 17:06:00,41.2,30.0,30.42,North,0,0.0,0.0,64,0.00,,,0.00,WUHU216HW,2013-01-04 01:06:00,
2013-01-03 17:11:00,41.4,30.2,30.42,North,0,0.0,0.0,64,0.00,,,0.00,WUHU216HW,2013-01-04 01:11:00,
2013-01-03 17:17:00,41.4,29.7,30.43,North,0,0.0,0.0,63,0.00,,,0.00,WUHU216HW,2013-01-04 01:17:00,
2013-01-03 17:21:00,41.8,30.1,30.43,North,0,0.0,0.0,63,0.00,,,0.00,WUHU216HW,2013-01-04 01:21:00,
2013-01-03 17:26:00,41.8,30.1,30.43,North,0,0.0,0.0,63,0.00,,,0.00,WUHU216HW,2013-01-04 01:26:00,
2013-01-03 17:32:00,41.9,29.9,30.43,North,0,0.0,0.0,62,0.00,,,0.00,WUHU216HW,2013-01-04 01:32:00,
2013-01-03 17:37:00,41.9,29.1,30.41,North,0,0.0,0.0,60,0.00,,,0.00,WUHU216HW,2013-01-04 01:37:00,
2013-01-03 17:42:00,41.8,29.3,30.41,North,0,0.0,0.0,61,0.00,,,0.00,WUHU216HW,2013-01-04 01:42:00,
2013-01-03 17:46:00,41.8,29.3,30.42,North,0,0.0,0.0,61,0.00,,,0.00,WUHU216HW,2013-01-04 01:46:00,
2013-01-03 17:52:00,41.8,29.3,30.41,North,0,0.0,0.0,61,0.00,,,0.00,WUHU216HW,2013-01-04 01:52:00,
2013-01-03 17:57:00,41.8,29.3,30.41,North,0,0.0,0.0,61,0.00,,,0.00,WUHU216HW,2013-01-04 01:57:00,
2013-01-03 18:02:00,41.4,28.2,30.40,North,0,0.0,0.0,59,0.00,,,0.00,WUHU216HW,2013-01-04 02:02:00,
2013-01-03 18:07:00,41.4,28.2,30.40,North,0,0.0,0.0,59,0.00,,,0.00,WUHU216HW,2013-01-04 02:07:00,
2013-01-03 18:11:00,41.4,27.3,30.40,North,0,0.0,0.0,57,0.00,,,0.00,WUHU216HW,2013-01-04 02:11:00,
2013-01-03 18:16:00,41.4,27.3,30.41,North,0,0.0,0.0,57,0.00,,,0.00,WUHU216HW,2013-01-04 02:16:00,
2013-01-03 18:21:00,41.6,27.0,30.42,North,0,0.0,0.0,56,0.00,,,0.00,WUHU216HW,2013-01-04 02:21:00,
2013-01-03 18:26:00,41.6,27.0,30.42,North,0,0.0,0.0,56,0.00,,,0.00,WUHU216HW,2013-01-04 02:26:00,
2013-01-03 18:31:00,41.6,27.0,30.43,North,0,0.0,0.0,56,0.00,,,0.00,WUHU216HW,2013-01-04 02:31:00,
2013-01-03 18:36:00,41.4,27.3,30.44,North,0,0.0,0.0,57,0.00,,,0.00,WUHU216HW,2013-01-04 02:36:00,
2013-01-03 18:41:00,41.2,28.0,30.45,North,0,0.0,0.0,59,0.00,,,0.00,WUHU216HW,2013-01-04 02:41:00,
2013-01-03 18:46:00,41.2,28.5,30.44,North,0,0.0,0.0,60,0.00,,,0.00,WUHU216HW,2013-01-04 02:46:00,
2013-01-03 18:51:00,40.9,28.1,30.44,North,0,0.0,0.0,60,0.00,,,0.00,WUHU216HW,2013-01-04 02:51:00,
2013-01-03 18:56:00,40.7,28.6,30.45,NE,45,0.4,0.4,62,0.01,,,0.01,WUHU216HW,2013-01-04 02:56:00,
2013-01-03 19:01:00,40.5,30.3,30.45,NE,45,1.3,1.3,67,0.02,,,0.02,WUHU216HW,2013-01-04 03:01:00,
2013-01-03 19:06:00,39.6,30.6,30.44,NE,45,1.6,1.6,70,0.03,,,0.03,WUHU216HW,2013-01-04 03:06:00,
2013-01-03 19:11:00,38.9,30.2,30.44,NE,45,0.2,1.6,71,0.04,,,0.04,WUHU216HW,2013-01-04 03:11:00,
2013-01-03 19:16:00,38.3,31.8,30.43,NNE,23,0.4,1.8,77,0.04,,,0.04,WUHU216HW,2013-01-04 03:16:00,
2013-01-03 19:21:00,38.0,32.4,30.44,NNE,23,0.7,1.8,80,0.05,,,0.05,WUHU216HW,2013-01-04 03:21:00,
2013-01-03 19:26:00,37.6,32.0,30.44,NNE,23,0.4,1.3,80,0.05,,,0.05,WUHU216HW,2013-01-04 03:26:00,
2013-01-03 19:31:00,37.4,31.9,30.45,ESE,113,0.2,1.3,80,0.05,,,0.05,WUHU216HW,2013-01-04 03:31:00,
2013-01-03 19:36:00,37.4,32.1,30.45,NNW,338,0.2,1.3,81,0.05,,,0.05,WUHU216HW,2013-01-04 03:36:00,
2013-01-03 19:41:00,37.3,31.7,30.45,NW,315,0.0,1.3,80,0.05,,,0.05,WUHU216HW,2013-01-04 03:41:00,
2013-01-03 19:46:00,37.1,32.0,30.44,North,0,0.0,1.3,82,0.06,,,0.06,WUHU216HW,2013-01-04 03:46:00,
2013-01-03 19:51:00,37.1,31.8,30.44,NW,315,0.0,2.5,81,0.06,,,0.06,WUHU216HW,2013-01-04 03:51:00,
2013-01-03 19:56:00,37.3,32.6,30.44,West,270,0.4,2.5,83,0.04,,,0.06,WUHU216HW,2013-01-04 03:56:00,
2013-01-03 20:01:00,37.3,32.2,30.44,North,0,1.1,1.1,82,0.04,,,0.06,WUHU216HW,2013-01-04 04:01:00,
2013-01-03 20:06:00,37.3,32.6,30.44,West,270,0.9,1.1,83,0.03,,,0.07,WUHU216HW,2013-01-04 04:06:00,
2013-01-03 20:11:00,37.3,32.6,30.44,SW,225,0.0,2.2,83,0.03,,,0.07,WUHU216HW,2013-01-04 04:11:00,
2013-01-03 20:16:00,37.1,32.9,30.44,North,0,0.2,2.9,85,0.03,,,0.08,WUHU216HW,2013-01-04 04:16:00,
2013-01-03 20:21:00,37.1,32.9,30.43,NNW,338,0.4,3.4,85,0.03,,,0.08,WUHU216HW,2013-01-04 04:21:00,
2013-01-03 20:26:00,36.9,33.0,30.44,ESE,113,0.0,3.4,86,0.03,,,0.08,WUHU216HW,2013-01-04 04:26:00,
2013-01-03 20:31:00,37.1,33.5,30.43,West,270,2.2,4.5,87,0.03,,,0.08,WUHU216HW,2013-01-04 04:31:00,
2013-01-03 20:36:00,37.1,33.2,30.44,WSW,248,0.0,4.5,86,0.03,,,0.08,WUHU216HW,2013-01-04 04:36:00,
2013-01-03 20:41:00,36.9,33.3,30.44,ENE,68,0.4,3.1,87,0.02,,,0.08,WUHU216HW,2013-01-04 04:41:00,
2013-01-03 20:46:00,36.9,33.0,30.44,WSW,248,0.7,3.1,86,0.03,,,0.09,WUHU216HW,2013-01-04 04:46:00,
2013-01-03 20:51:00,36.9,33.3,30.44,SW,225,4.3,4.3,87,0.04,,,0.10,WUHU216HW,2013-01-04 04:51:00,
2013-01-03 20:56:00,36.9,33.3,30.44,NNW,338,0.0,4.3,87,0.04,,,0.10,WUHU216HW,2013-01-04 04:56:00,
2013-01-03 21:00:00,36.9,33.0,30.44,NW,315,0.0,4.3,86,0.04,,,0.10,WUHU216HW,2013-01-04 05:00:00,
2013-01-03 21:03:00,36.9,33.3,30.44,NNW,338,0.0,1.1,87,0.03,,,0.10,WUHU216HW,2013-01-04 05:03:00,
2013-01-03 21:08:00,36.9,33.3,30.44,WSW,248,1.1,1.1,87,0.04,,,0.10,WUHU216HW,2013-01-04 05:08:00,
2013-01-03 21:13:00,36.9,33.3,30.44,SW,225,0.7,1.1,87,0.03,,,0.11,WUHU216HW,2013-01-04 05:13:00,
2013-01-03 21:18:00,36.9,33.3,30.44,SSE,158,1.1,1.8,87,0.03,,,0.11,WUHU216HW,2013-01-04 05:18:00,
2013-01-03 21:23:00,37.1,33.5,30.44,SSE,158,0.0,1.8,87,0.04,,,0.12,WUHU216HW,2013-01-04 05:23:00,
2013-01-03 21:28:00,37.1,33.5,30.44,WSW,248,0.0,1.3,87,0.04,,,0.12,WUHU216HW,2013-01-04 05:28:00,
2013-01-03 21:33:00,37.1,33.5,30.44,SSW,203,0.9,1.6,87,0.04,,,0.12,WUHU216HW,2013-01-04 05:33:00,
2013-01-03 21:38:00,37.1,33.9,30.45,WSW,248,1.1,1.8,88,0.04,,,0.12,WUHU216HW,2013-01-04 05:38:00,
2013-01-03 21:43:00,37.1,33.9,30.45,SW,225,1.1,1.8,88,0.03,,,0.12,WUHU216HW,2013-01-04 05:43:00,
2013-01-03 21:48:00,37.1,33.9,30.45,SW,225,2.7,2.7,88,0.02,,,0.12,WUHU216HW,2013-01-04 05:48:00,
2013-01-03 21:53:00,37.1,33.5,30.45,SSE,158,0.2,2.9,87,0.02,,,0.12,WUHU216HW,2013-01-04 05:53:00,
2013-01-03 21:58:00,37.1,33.9,30.45,SSE,158,0.7,4.0,88,0.02,,,0.12,WUHU216HW,2013-01-04 05:58:00,
2013-01-03 22:03:00,37.1,33.5,30.45,ENE,68,0.0,4.0,87,0.02,,,0.12,WUHU216HW,2013-01-04 06:03:00,
2013-01-03 22:08:00,37.1,33.9,30.45,South,180,1.1,1.6,88,0.01,,,0.12,WUHU216HW,2013-01-04 06:08:00,
2013-01-03 22:13:00,37.1,33.5,30.45,South,180,0.0,1.6,87,0.01,,,0.12,WUHU216HW,2013-01-04 06:13:00,
2013-01-03 22:18:00,37.1,33.5,30.45,South,180,0.0,1.1,87,0.02,,,0.12,WUHU216HW,2013-01-04 06:18:00,
2013-01-03 22:23:00,37.1,33.9,30.45,South,180,0.0,0.7,88,0.01,,,0.13,WUHU216HW,2013-01-04 06:23:00,
2013-01-03 22:28:00,37.1,33.5,30.46,SSW,203,0.2,0.7,87,0.01,,,0.13,WUHU216HW,2013-01-04 06:28:00,
2013-01-03 22:33:00,37.1,33.5,30.47,SW,225,0.0,0.9,87,0.01,,,0.13,WUHU216HW,2013-01-04 06:33:00,
2013-01-03 22:38:00,37.1,33.5,30.46,WSW,248,0.0,0.9,87,0.01,,,0.13,WUHU216HW,2013-01-04 06:38:00,
2013-01-03 22:43:00,37.1,33.9,30.47,WSW,248,0.0,0.9,88,0.01,,,0.13,WUHU216HW,2013-01-04 06:43:00,
2013-01-03 22:48:00,37.1,33.5,30.46,WSW,248,0.0,0.9,87,0.01,,,0.13,WUHU216HW,2013-01-04 06:48:00,
2013-01-03 22:53:00,37.1,33.9,30.46,WSW,248,1.6,1.6,88,0.01,,,0.13,WUHU216HW,2013-01-04 06:53:00,
2013-01-03 22:58:00,37.1,33.9,30.46,WSW,248,0.0,1.6,88,0.01,,,0.13,WUHU216HW,2013-01-04 06:58:00,
2013-01-03 23:03:00,37.1,33.9,30.46,WSW,248,0.0,0.4,88,0.01,,,0.13,WUHU216HW,2013-01-04 07:03:00,
2013-01-03 23:08:00,37.1,33.5,30.47,WSW,248,0.0,0.4,87,0.01,,,0.13,WUHU216HW,2013-01-04 07:08:00,
2013-01-03 23:13:00,37.1,33.5,30.47,WSW,248,0.0,0.0,87,0.02,,,0.14,WUHU216HW,2013-01-04 07:13:00,
2013-01-03 23:18:00,37.1,33.5,30.47,WSW,248,0.0,0.0,87,0.01,,,0.14,WUHU216HW,2013-01-04 07:18:00,
2013-01-03 23:23:00,37.1,33.5,30.47,WSW,248,0.0,0.0,87,0.01,,,0.14,WUHU216HW,2013-01-04 07:23:00,
2013-01-03 23:28:00,37.1,33.5,30.47,South,180,0.2,0.2,87,0.01,,,0.14,WUHU216HW,2013-01-04 07:28:00,
2013-01-03 23:33:00,37.1,33.9,30.47,West,270,0.9,1.8,88,0.01,,,0.14,WUHU216HW,2013-01-04 07:33:00,
2013-01-03 23:38:00,37.3,34.0,30.47,SSW,203,0.0,1.8,88,0.01,,,0.14,WUHU216HW,2013-01-04 07:38:00,
2013-01-03 23:43:00,37.3,34.0,30.47,NNW,338,0.0,1.6,88,0.01,,,0.14,WUHU216HW,2013-01-04 07:43:00,
2013-01-03 23:48:00,37.3,34.0,30.47,NNW,338,0.0,0.0,88,0.01,,,0.14,WUHU216HW,2013-01-04 07:48:00,
2013-01-03 23:53:00,37.3,34.0,30.47,NW,315,0.0,0.4,88,0.01,,,0.14,WUHU216HW,2013-01-04 07:53:00,
2013-01-03 23:58:00,37.3,34.0,30.47,NW,315,0.0,0.4,88,0.01,,,0.14,WUHU216HW,2013-01-04 07:58:00,